Terminal Aerodrome Forecast
Issued by NWS Topeka, KS

Home | Current Version | Previous Version | Graphics & Text | Print | Product List | Glossary On
Versions: 1 2 3 4 5 6 7 8 9 10 11 12 13 14 15 16 17 18 19 20 21 22 23 24 25
000
FTUS43 KTOP 220500
TAFTOP
TAF
KTOP 220520Z 2206/2306 11005KT P6SM SKC
     FM220900 12006KT P6SM BKN035
     FM221600 16011KT P6SM SCT040
     FM230000 15007KT P6SM SCT040 BKN250 PROB30 2303/2306 -SHRA
      BKN035=

USA.gov is the U.S. government's official web portal to all federal, state and local government web resources and services.